Voltar ao catálogo

NOZOMI

PLANET-B

AtivoCiênciaHEO
NORAD 25383·PAYLOAD·🇯🇵 Japan

Lançado Jul 3, 1998 de Uchinoura Space Center

Loading…

Próximas Passagens (próximas 24 horas)

TLE

ObsoletoSource: Space-Track

Época: Aug 14, 1998, 23:48 UTC

1 25383U 98041A   98226.99187500 +.00003099 +00000-0 +00000-0 0  9990
2 25383 027.3010 240.9300 9718370 156.3990 359.9900 00.06886564000044

Acompanhe NOZOMI em tempo real com AllMySat

Download on the App Store